FW2273 Weather Reports


time (UTC)temp
C
wind
direction
speed
KPH
gust
KPH
rain 1hr
cm
rain 24hr
cm
rain mn
cm
humidity
%
barometer
mb
20260509024503 12 74 1.6 4.8 0.00 0.00 0.00 85 1011.3
20260509023002 13 71 0.0 3.2 0.00 0.00 0.00 84 1011.2
20260509021502 13 71 1.6 3.2 0.00 0.00 0.00 84 1011.0
20260509020001 13 54 0.0 3.2 0.00 0.00 0.00 85 1011.0
20260509014603 12 65 0.0 3.2 0.00 0.00 0.00 86 1011.1
20260509013109 13 65 0.0 3.2 0.00 0.00 0.00 85 1011.0
20260509011559 13 65 0.0 3.2 0.00 0.00 0.00 84 1010.5
20260509010058 13 65 0.0 0.0 0.00 0.00 0.00 82 1010.5
20260509004555 14 65 0.0 4.8 0.00 0.00 0.00 78 1010.4
20260509003054 15 69 0.0 3.2 0.00 0.00 0.00 79 1010.4
20260509001552 15 209 0.0 3.2 0.00 0.00 0.00 80 1010.2
20260509000052 15 209 0.0 1.6 0.00 0.00 0.00 79 1010.1
20260508234552 16 209 0.0 3.2 0.00 0.00 0.00 78 1009.7
20260508233054 16 209 0.0 3.2 0.00 0.00 0.00 75 1009.8
20260508231550 16 184 0.0 3.2 0.00 0.00 0.00 75 1009.9
20260508230057 17 184 1.6 4.8 0.00 0.00 0.00 66 1009.7
20260508224521 18 313 1.6 4.8 0.00 0.00 0.00 62 1009.8
20260508223016 18 350 0.0 4.8 0.00 0.00 0.00 61 1009.6
20260508221533 18 262 0.0 3.2 0.00 0.00 0.00 64 1009.6
20260508220013 18 197 0.0 1.6 0.00 0.00 0.00 72 1009.4
20260508214513 20 197 0.0 3.2 0.00 0.00 0.00 57 1009.3
20260508213020 20 197 0.0 3.2 0.00 0.00 0.00 56 1009.4
20260508211507 20 52 0.0 8.0 0.00 0.00 0.00 56 1009.7
20260508210006 19 106 0.0 3.2 0.00 0.00 0.00 56 1009.6
20260508204510 18 255 0.0 1.6 0.00 0.00 0.00 57 1009.6
20260508203006 19 255 0.0 3.2 0.00 0.00 0.00 54 1009.8
20260508201502 18 200 0.0 3.2 0.00 0.00 0.00 67 1009.9
20260508194557 19 205 0.0 4.8 0.00 0.00 0.00 56 1010.2
20260508193058 19 55 1.6 4.8 0.00 0.00 0.00 54 1010.9
20260508191557 19 226 0.0 3.2 0.00 0.00 0.00 49 1011.2
20260508190052 20 229 1.6 4.8 0.00 0.00 0.00 50 1011.3
20260508184550 19 257 0.0 8.0 0.00 0.00 0.00 51 1011.5
20260508183050 18 216 0.0 6.4 0.00 0.00 0.00 52 1011.9
20260508181547 18 96 1.6 8.0 0.00 0.00 0.00 54 1012.0
20260508180043 18 272 3.2 8.0 0.00 0.00 0.00 49 1012.2
20260508174542 18 106 1.6 8.0 0.00 0.00 0.00 50 1012.2
20260508173040 17 187 1.6 8.0 0.00 0.00 0.00 51 1012.5
20260508171539 17 205 3.2 9.7 0.00 0.00 0.00 52 1012.8
20260508170007 16 242 1.6 6.4 0.00 0.00 0.00 56 1012.9
20260508164506 16 219 1.6 6.4 0.00 0.00 0.00 63 1013.2
20260508163058 15 46 1.6 4.8 0.00 0.00 0.00 69 1013.5
20260508161555 15 227 1.6 6.4 0.00 0.00 0.00 70 1013.8
20260508160055 14 200 1.6 4.8 0.00 0.00 0.00 70 1014.0
20260508154549 13 191 1.6 4.8 0.00 0.00 0.00 76 1014.1
20260508153044 12 163 3.2 6.4 0.00 0.00 0.00 80 1014.2
20260508151539 11 208 0.0 4.8 0.00 0.00 0.00 89 1014.4
20260508150041 9 169 1.6 4.8 0.00 0.00 0.00 96 1014.6
20260508144536 8 194 0.0 3.2 0.00 0.00 0.00 96 1014.6
20260508143031 8 188 0.0 4.8 0.00 0.00 0.00 96 1014.7
20260508141530 7 187 0.0 3.2 0.00 0.00 0.00 96 1014.9
20260508140029 7 187 0.0 3.2 0.00 0.00 0.00 96 1015.1
20260508134528 7 185 0.0 4.8 0.00 0.00 0.00 96 1015.0
20260508133028 7 190 0.0 3.2 0.00 0.00 0.00 96 1015.1
20260508131525 6 139 0.0 3.2 0.00 0.00 0.00 96 1015.3
20260508130023 6 73 0.0 0.0 0.00 0.00 0.00 96 1015.1
20260508124523 6 73 0.0 0.0 0.00 0.00 0.00 96 1015.1
20260508123054 5 73 0.0 0.0 0.00 0.00 0.00 95 1015.1
20260508121559 5 87 0.0 0.0 0.00 0.00 0.00 95 1015.0
20260508120046 5 107 0.0 0.0 0.00 0.00 0.00 95 1014.7
20260508114544 4 107 0.0 1.6 0.00 0.08 0.00 94 1014.5
20260508113045 4 107 0.0 0.0 0.00 0.08 0.00 94 1014.3
20260508111540 4 107 0.0 0.0 0.00 0.08 0.00 94 1013.9
20260508110007 4 107 0.0 0.0 0.00 0.08 0.00 94 1013.6
20260508104509 4 107 0.0 0.0 0.00 0.41 0.00 93 1013.3
20260508103001 5 107 0.0 1.6 0.00 0.41 0.00 93 1013.0
20260508101605 5 126 0.0 0.0 0.00 0.41 0.00 94 1012.8
20260508100057 5 126 0.0 0.0 0.00 0.41 0.00 94 1012.4
20260508094555 5 126 0.0 0.0 0.00 0.41 0.00 94 1012.3
20260508093052 5 126 0.0 0.0 0.00 0.41 0.00 94 1012.1
20260508091553 5 126 0.0 0.0 0.00 0.41 0.00 94 1011.8
20260508090104 5 126 0.0 0.0 0.00 0.41 0.00 94 1011.9
20260508084546 5 126 0.0 0.0 0.00 0.41 0.00 94 1011.7
20260508083103 6 126 0.0 0.0 0.00 0.41 0.00 94 1011.7
20260508081554 6 126 0.0 0.0 0.00 0.41 0.00 93 1011.7
20260508080042 6 126 0.0 0.0 0.00 0.41 0.00 93 1011.4
20260508074540 6 126 0.0 0.0 0.00 0.41 0.00 93 1011.4
20260508073039 6 126 0.0 0.0 0.00 0.41 0.00 93 1011.3
20260508071535 6 126 0.0 0.0 0.00 0.41 0.00 93 1011.5
20260508070100 6 126 0.0 0.0 0.00 0.41 0.00 93 1011.3
20260508064537 6 126 0.0 0.0 0.00 0.43 0.00 93 1011.3
20260508063032 6 126 0.0 0.0 0.00 0.43 0.00 93 1011.3
20260508061527 7 126 0.0 0.0 0.00 0.43 0.00 93 1011.2
20260508060026 7 126 0.0 0.0 0.00 0.43 0.00 93 1011.2
20260508054524 7 126 0.0 0.0 0.00 0.46 0.00 93 1011.2
20260508053023 7 126 0.0 0.0 0.00 0.46 0.00 92 1011.3
20260508051519 7 126 0.0 0.0 0.00 0.46 0.00 92 1011.2
20260508050021 7 126 0.0 0.0 0.00 0.46 0.00 92 1011.2
20260508044517 7 126 0.0 0.0 0.00 0.69 0.00 92 1011.0
20260508043020 7 126 0.0 0.0 0.00 0.69 0.00 91 1011.1
20260508041543 7 126 0.0 0.0 0.00 0.69 0.00 91 1011.0
20260508040043 8 126 0.0 0.0 0.00 0.69 0.00 90 1011.0
20260508034513 8 126 0.0 0.0 0.00 0.76 0.00 90 1011.0
20260508033009 8 126 0.0 0.0 0.00 0.76 0.00 90 1010.8
20260508031516 8 126 0.0 0.0 0.00 0.76 0.00 89 1011.1
20260508030003 8 126 0.0 0.0 0.00 0.76 0.00 89 1011.1